User: anonymous   Login
Location: Newark
(59.4564°N, 26.6917°E)
Time: 00:23:38
(UTC+00:00)
Language:

SR - Orbit

View from above orbital plane
View from above orbital plane
View from above satellite
View from above satellite

Ground track
Ground track

The orbit data is extracted from the following two-line orbital elements,

1    46U 60007B   19326.88252132 -.00000042  00000-0  14964-4 0  9990
2    46  66.6906 247.3779 0217294 285.3658  72.3534 14.49259380109027
Epoch (UTC): 22 November 2019 21:10:49
Eccentricity: 0.0217294
inclination: 66.6906°
perigee height: 573 km
apogee height: 882 km
right ascension of ascending node: 247.3779°
argument of perigee: 285.3658°
revolutions per day: 14.49259380
mean anomaly at epoch: 72.3534°
orbit number at epoch: 10902

The dashed part of the orbit path shows where the satellite is in the earth's shadow,  

DLR